EW5963 Weather Reports


Display with metric or nautical units.
time (UTC)temp
F
wind
direction
speed
MPH
gust
MPH
rain 1hr
in
rain 24hr
in
rain mn
in
humidity
%
barometer
mb
20260504050529 65 107 6.0 9.0 0.00 0.00 0.00 72 1017.7
20260504045528 65 116 5.0 7.0 0.00 0.00 0.00 72 1017.9
20260504045028 65 106 4.0 7.0 0.00 0.00 0.00 72 1017.9
20260504044528 65 127 5.0 10.0 0.00 0.00 0.00 72 1017.8
20260504044028 65 0 5.0 10.0 0.00 0.00 0.00 72 1017.9
20260504043527 65 109 5.0 7.0 0.00 0.00 0.00 71 1018.1
20260504043027 65 0 6.0 7.0 0.00 0.00 0.00 72 1018.1
20260504042528 66 113 4.0 6.0 0.00 0.00 0.00 71 1018.3
20260504042028 66 94 4.0 6.0 0.00 0.00 0.00 71 1018.5
20260504041528 66 134 4.0 6.0 0.00 0.00 0.00 71 1018.4
20260504040528 66 100 3.0 6.0 0.00 0.00 0.00 71 1018.5
20260504040028 67 116 3.0 6.0 0.00 0.00 0.00 71 1018.6
20260504035027 67 118 4.0 6.0 0.00 0.00 0.00 70 1018.5
20260504034527 67 113 4.0 6.0 0.00 0.00 0.00 70 1018.5
20260504033527 67 130 5.0 7.0 0.00 0.00 0.00 70 1018.3
20260504033027 67 128 4.0 7.0 0.00 0.00 0.00 69 1018.3
20260504032026 67 109 4.0 9.0 0.00 0.00 0.00 69 1018.2
20260504031527 67 120 5.0 9.0 0.00 0.00 0.00 69 1018.1
20260504030527 67 109 4.0 10.0 0.00 0.00 0.00 68 1018.0
20260504030026 68 123 5.0 10.0 0.00 0.00 0.00 68 1018.0
20260504025026 68 121 7.0 12.0 0.00 0.00 0.00 68 1018.2
20260504024526 68 75 6.0 11.0 0.00 0.00 0.00 68 1018.1
20260504024026 68 120 7.0 11.0 0.00 0.00 0.00 67 1018.1
20260504023026 68 0 6.0 11.0 0.00 0.00 0.00 67 1018.0
20260504022526 69 141 5.0 11.0 0.00 0.00 0.00 67 1018.1
20260504021526 69 106 8.0 12.0 0.00 0.00 0.00 66 1018.0
20260504021025 69 113 9.0 13.0 0.00 0.00 0.00 66 1017.9
20260504020025 69 135 8.0 15.0 0.00 0.00 0.00 65 1018.0
20260504015525 69 140 8.0 15.0 0.00 0.00 0.00 65 1017.9
20260504014525 70 130 6.0 15.0 0.00 0.00 0.00 64 1017.7
20260504014024 70 116 8.0 18.0 0.00 0.00 0.00 64 1017.6
20260504013524 70 116 8.0 18.0 0.00 0.00 0.00 63 1017.6
20260504013025 70 100 6.0 14.0 0.00 0.00 0.00 62 1017.5
20260504012525 71 144 8.0 14.0 0.00 0.00 0.00 62 1017.3
20260504012024 71 131 5.0 15.0 0.00 0.00 0.00 61 1017.3
20260504011524 71 148 9.0 17.0 0.00 0.00 0.00 60 1017.2
20260504011024 71 123 8.0 17.0 0.00 0.00 0.00 60 1017.2
20260504010524 72 124 6.0 16.0 0.00 0.00 0.00 59 1017.3
20260504010024 72 104 7.0 16.0 0.00 0.00 0.00 58 1017.3
20260504005524 72 123 8.0 13.0 0.00 0.00 0.00 58 1017.3
20260504004524 72 113 8.0 14.0 0.00 0.00 0.00 57 1017.0
20260504004024 73 113 9.0 15.0 0.00 0.00 0.00 57 1017.2
20260504003023 74 127 10.0 18.0 0.00 0.00 0.00 55 1017.1
20260504002523 74 151 7.0 18.0 0.00 0.00 0.00 54 1017.2
20260504001523 74 130 10.0 18.0 0.00 0.00 0.00 52 1017.4
20260504001023 75 114 6.0 14.0 0.00 0.00 0.00 50 1017.5
20260504000523 75 0 7.0 16.0 0.00 0.00 0.00 50 1017.5
20260503235523 75 0 7.0 16.0 0.00 0.00 0.00 49 1017.5
20260503235023 76 114 9.0 16.0 0.00 0.00 0.00 49 1017.4
20260503234023 76 125 9.0 16.0 0.00 0.00 0.00 49 1017.3
20260503233522 76 94 11.0 16.0 0.00 0.00 0.00 49 1017.4
20260503232523 76 140 9.0 19.0 0.00 0.00 0.00 48 1017.3
20260503232023 76 110 10.0 17.0 0.00 0.00 0.00 49 1017.3
20260503231523 77 133 9.0 17.0 0.00 0.00 0.00 48 1017.2
20260503231022 77 102 11.0 17.0 0.00 0.00 0.00 48 1017.3
20260503230522 77 114 8.0 17.0 0.00 0.00 0.00 48 1017.4
20260503230023 77 0 10.0 17.0 0.00 0.00 0.00 48 1017.5
20260503225522 77 107 8.0 16.0 0.00 0.00 0.00 49 1017.5
20260503225022 77 130 9.0 19.0 0.00 0.00 0.00 47 1017.5
20260503224521 77 137 9.0 20.0 0.00 0.00 0.00 47 1017.5
20260503224021 77 113 14.0 20.0 0.00 0.00 0.00 47 1017.6
20260503223521 78 79 9.0 17.0 0.00 0.00 0.00 47 1017.7
20260503223021 78 138 7.0 19.0 0.00 0.00 0.00 47 1017.7
20260503222522 78 142 11.0 19.0 0.00 0.00 0.00 46 1017.7
20260503222021 78 199 8.0 17.0 0.00 0.00 0.00 46 1017.7
20260503221021 78 117 4.0 16.0 0.00 0.00 0.00 45 1017.8
20260503220521 78 145 7.0 16.0 0.00 0.00 0.00 45 1017.9
20260503215521 78 93 6.0 18.0 0.00 0.00 0.00 46 1017.7
20260503215021 78 124 10.0 17.0 0.00 0.00 0.00 48 1018.0
20260503214021 78 63 9.0 16.0 0.00 0.00 0.00 47 1018.2
20260503213520 79 62 10.0 17.0 0.00 0.00 0.00 47 1018.4
20260503213021 79 178 11.0 17.0 0.00 0.00 0.00 46 1018.4
20260503212520 79 145 9.0 16.0 0.00 0.00 0.00 47 1018.5
20260503211520 78 116 7.0 13.0 0.00 0.00 0.00 46 1018.7
20260503211020 78 145 6.0 13.0 0.00 0.00 0.00 47 1018.9
20260503210020 79 159 7.0 16.0 0.00 0.00 0.00 46 1019.1
20260503205520 79 178 7.0 16.0 0.00 0.00 0.00 47 1019.1
20260503204519 80 85 8.0 15.0 0.00 0.00 0.00 45 1019.2
20260503204019 79 135 4.0 14.0 0.00 0.00 0.00 44 1019.3
20260503203519 78 134 8.0 14.0 0.00 0.00 0.00 45 1019.4
20260503202520 80 165 9.0 16.0 0.00 0.00 0.00 43 1019.5
20260503202020 81 123 2.0 10.0 0.00 0.00 0.00 42 1019.5
20260503201019 80 125 9.0 15.0 0.00 0.00 0.00 43 1019.7
20260503200519 79 125 6.0 14.0 0.00 0.00 0.00 43 1019.7
20260503195519 79 131 3.0 15.0 0.00 0.00 0.00 43 1019.8
20260503195018 79 120 9.0 16.0 0.00 0.00 0.00 44 1019.9
20260503194518 79 214 3.0 16.0 0.00 0.00 0.00 43 1020.0
20260503194019 79 0 8.0 14.0 0.00 0.00 0.00 43 1020.1
20260503193519 79 96 3.0 13.0 0.00 0.00 0.00 45 1020.2
20260503193018 79 107 6.0 13.0 0.00 0.00 0.00 42 1020.4
20260503192518 79 111 5.0 13.0 0.00 0.00 0.00 44 1020.6
20260503192018 79 118 6.0 13.0 0.00 0.00 0.00 42 1020.6
20260503191518 79 100 6.0 15.0 0.00 0.00 0.00 44 1020.6
20260503191018 78 106 10.0 16.0 0.00 0.00 0.00 44 1020.7
20260503190518 79 114 9.0 16.0 0.00 0.00 0.00 43 1020.8
20260503190019 79 45 2.0 15.0 0.00 0.00 0.00 42 1020.8
20260503185518 79 118 8.0 15.0 0.00 0.00 0.00 44 1021.0
20260503185017 79 110 7.0 16.0 0.00 0.00 0.00 43 1021.0
20260503184518 78 152 8.0 16.0 0.00 0.00 0.00 43 1021.0
20260503184017 78 159 5.0 13.0 0.00 0.00 0.00 44 1021.1
20260503183517 78 31 3.0 17.0 0.00 0.00 0.00 44 1021.2
20260503183018 78 117 6.0 17.0 0.00 0.00 0.00 45 1021.3
20260503182517 78 110 4.0 15.0 0.00 0.00 0.00 42 1021.3
20260503182018 78 87 11.0 15.0 0.00 0.00 0.00 44 1021.4
20260503181517 78 113 2.0 13.0 0.00 0.00 0.00 45 1021.5
20260503181017 78 149 6.0 14.0 0.00 0.00 0.00 44 1021.6
20260503180517 78 107 7.0 14.0 0.00 0.00 0.00 44 1021.7
20260503175517 78 152 4.0 11.0 0.00 0.00 0.00 45 1021.8
20260503175017 78 109 5.0 10.0 0.00 0.00 0.00 45 1021.9
20260503174017 77 0 6.0 13.0 0.00 0.00 0.00 46 1022.2
20260503173516 76 168 6.0 13.0 0.00 0.00 0.00 47 1022.4
20260503172518 77 76 6.0 11.0 0.00 0.00 0.00 46 1022.3
20260503172016 77 79 5.0 11.0 0.00 0.00 0.00 45 1022.3
20260503171516 77 45 4.0 15.0 0.00 0.00 0.00 47 1022.4
20260503170516 76 110 3.0 11.0 0.00 0.00 0.00 47 1022.5
20260503151014 71 62 1.0 7.0 0.00 0.00 0.00 63 1023.0
20260503150514 70 68 4.0 7.0 0.00 0.00 0.00 64 1023.1
20260503130511 53 295 0.0 2.0 0.00 0.00 0.00 83 1022.7
20260503110501 52 0 3.0 4.0 0.00 0.00 0.00 80 1021.2
20260503090500 54 54 1.0 2.0 0.00 0.00 0.00 77 1021.2
20260503081001 55 16 2.0 3.0 0.00 0.00 0.00 76 1021.3
20260503080506 55 16 2.0 3.0 0.00 0.00 0.00 76 1021.4
20260503072001 56 23 1.0 3.0 0.00 0.00 0.00 74 1021.7
20260503071501 56 38 2.0 3.0 0.00 0.00 0.00 73 1021.7
20260503070506 56 47 2.0 3.0 0.00 0.00 0.00 73 1021.7
20260503055001 58 63 0.0 2.0 0.00 0.00 0.00 70 1021.6
20260503054501 58 106 0.0 2.0 0.00 0.00 0.00 70 1021.5
20260503054001 59 56 0.0 2.0 0.00 0.00 0.00 70 1021.6
20260503053500 59 27 0.0 3.0 0.00 0.00 0.00 69 1021.6
20260503053001 59 38 1.0 3.0 0.00 0.00 0.00 69 1021.6
20260503052501 60 13 0.0 2.0 0.00 0.00 0.00 69 1021.6
20260503052002 60 55 0.0 3.0 0.00 0.00 0.00 69 1021.6
20260503051501 60 10 2.0 5.0 0.00 0.00 0.00 69 1021.6